Weather in Tyunevo

Russia / Tyumen Oblast     57°23′25″N   65°41′54″E
temp.,
°C
wind,
m/s
gust,
m/s
humid.,
%
clouds,
%
prec.,
mm/h
press.,
hPa
HPBL,
m
31 july, sat
sat3123:00+14sw4109690 0.4 1002367
02:00+14sw389734 0.0 1002224
05:00+13wsw269954 0.0 1003155
08:00+15wnw3694100 0.0 1005365
11:00+18nnw337690 0.1 1007810
14:00+20nnw236182 0.0 10081091
17:00+22w2356100 0.0 10091295
20:00+18s1178100 0.0 100911
1 august, sun
sun123:00+15se248899 0.0 100968
02:00+15sse3893100 0.6 1008228
05:00+16sse4109767 2.3 1007301
08:00+18sse41093100 0.2 1006383
11:00+24ssw4670100 0.9 1005967
14:00+23w58833 2.3 1004757
17:00+25w696492 3.2 10051437
20:00+21w38711 0.1 1005202
2 august, mon
mon223:00+17w312815 0.1 1006283
02:00+16w412850 0.0 1008313
05:00+14w310950 0.0 1008261
08:00+18wnw487231 0.0 1010534
11:00+22wnw585293 0.0 10101419
14:00+25nw574283 0.0 10101775
17:00+25nw464013 0.0 10112124
20:00+20w22650 0.0 101238
3 august, tue
tue323:00+17w22725 0.0 101230
02:00+16wsw2379100 0.0 101248
05:00+16wsw2582100 0.0 1012110
08:00+20sw35705 0.0 1013295
11:00+24w346442 0.2 1012962
14:00+27nnw365043 0.7 10111733
17:00+25nnw2558100 0.7 1011312
20:00+23wsw116899 0.0 101211
4 august, wed
wed423:00+20w117779 0.0 101216
02:00+18wnw118879 0.1 101314
05:00+17nw228888 0.1 101315
08:00+22nnw126793 0.0 1014208
11:00+27n0051100 0.0 1013749
14:00+21wsw3579100 0.4 1014192
17:00+24nnw2366100 0.4 1013310
20:00+22nnw117569 0.0 101311